Pontiac, MI

3:15 PM EDT on September 19, 2017 (GMT -0400)
Oakland County International

Weather History for KPTK - October, 2014

Change the Weather History Date:

Monday, October 13, 2014

  Actual Average Record
Temperature  
Mean Temperature 58 °F -  
Max Temperature 68 °F 58 °F 78 °F (2008)
Min Temperature 51 °F 40 °F 30 °F (2012)
Degree Days  
Heating Degree Days 6    
Growing Degree Days 8 (Base 50)    
Moisture  
Dew Point 56 °F    
Average Humidity 89    
Maximum Humidity 100    
Minimum Humidity 76    
Precipitation  
Precipitation 0.07 in - - ()
Sea Level Pressure  
Sea Level Pressure 29.93 in    
Wind  
Wind Speed 7 mph (SSE)    
Max Wind Speed 15 mph    
Max Gust Speed 23 mph    
Visibility 6 miles    
Events Fog , Rain    
Averages and records for this station are not official NWS values.
T = Trace of Precipitation, MM = Missing Value Source: NWS Daily Summary

Daily Weather History Graph

Daily Weather History Graph

Search for Another Location

Airport or City:

Trip Planner

Search our weather history database for the weather conditions in past years. The results will help you decide how hot, cold, wet, or windy it might be!

Date:

Astronomy

Oct. 13, 2014 Rise Set
Actual Time 7:44 AM EDT 6:54 PM EDT
Civil Twilight 7:16 AM EDT 7:22 PM EDT
Nautical Twilight 6:43 AM EDT 7:55 PM EDT
Astronomical Twilight 6:10 AM EDT 8:28 PM EDT
Moon 11:00 PM EDT (10/13) 1:02 PM EDT (10/13)
Length of Visible Light 12h 06m
Length of Day
11h 10m
Waning Gibbous, 70% of the Moon is Illuminated
Oct 13
Waning Gibbous
Oct 15
Last Quarter
Oct 23
New
Oct 30
First Quarter
Nov 6
Full

Hourly Weather History & Observations

Time (EDT) Temp. Dew Point Humidity Pressure Visibility Wind Dir Wind Speed Gust Speed Precip Events Conditions
12:53 AM 51.8 °F 46.4 °F 82% 30.00 in 10.0 mi ESE 4.6 mph - N/A   Mostly Cloudy
1:53 AM 52.0 °F 48.0 °F 86% 29.99 in 10.0 mi SE 6.9 mph - N/A   Scattered Clouds
2:53 AM 54.0 °F 50.0 °F 86% 29.98 in 10.0 mi SE 8.1 mph - N/A   Scattered Clouds
3:18 AM 55.0 °F 51.1 °F 86% 29.98 in 10.0 mi SSE 6.9 mph - N/A   Mostly Cloudy
3:31 AM 55.0 °F 51.1 °F 86% 29.98 in 10.0 mi SSE 9.2 mph - N/A   Overcast
3:41 AM 55.0 °F 51.1 °F 86% 29.97 in 9.0 mi SSE 6.9 mph - N/A   Overcast
3:51 AM 55.4 °F 51.8 °F 88% 29.97 in 9.0 mi SSE 8.1 mph - N/A   Overcast
3:53 AM 55.0 °F 51.1 °F 86% 29.97 in 9.0 mi SSE 6.9 mph - N/A   Overcast
4:44 AM 55.0 °F 52.0 °F 89% 29.95 in 6.0 mi SE 3.5 mph - 0.00 in Rain Light Rain
4:53 AM 55.0 °F 52.0 °F 89% 29.95 in 5.0 mi SSE 10.4 mph - 0.01 in Rain Rain
5:01 AM 55.0 °F 53.1 °F 93% 29.95 in 4.0 mi South 8.1 mph - 0.02 in Rain Rain
5:15 AM 55.0 °F 53.1 °F 93% 29.94 in 5.0 mi SE 6.9 mph - 0.05 in Rain Light Rain
5:53 AM 55.0 °F 53.1 °F 93% 29.94 in 4.0 mi SE 8.1 mph - 0.05 in   Overcast
6:53 AM 55.9 °F 54.0 °F 93% 29.96 in 2.0 mi SSE 6.9 mph - 0.00 in   Light Drizzle
7:06 AM 55.9 °F 54.0 °F 93% 29.96 in 1.8 mi South 6.9 mph - 0.01 in   Light Drizzle
7:53 AM 55.9 °F 55.0 °F 97% 29.97 in 1.8 mi South 6.9 mph - 0.01 in   Light Drizzle
8:25 AM 57.0 °F 55.0 °F 93% 29.95 in 1.0 mi South 6.9 mph - 0.00 in   Light Drizzle
8:38 AM 57.0 °F 55.9 °F 96% 29.96 in 0.8 mi South 5.8 mph - 0.00 in   Light Drizzle
8:53 AM 57.0 °F 55.9 °F 96% 29.96 in 0.8 mi SSE 6.9 mph - 0.00 in   Light Drizzle
9:46 AM 57.9 °F 57.0 °F 97% 29.97 in 0.5 mi SSE 9.2 mph - 0.00 in Fog Fog
9:53 AM 57.2 °F 57.2 °F 100% 29.97 in 0.5 mi South 5.8 mph - N/A Fog Fog
10:53 AM 59.0 °F 57.9 °F 96% 29.96 in 0.5 mi SSE 9.2 mph - N/A Fog Fog
11:53 AM 60.1 °F 57.9 °F 93% 29.96 in 0.8 mi South 6.9 mph - N/A   Mist
12:32 PM 60.1 °F 59.0 °F 96% 29.96 in 1.0 mi South 8.1 mph - N/A   Mist
12:53 PM 61.0 °F 60.1 °F 97% 29.95 in 1.2 mi South 4.6 mph - 0.00 in Rain Light Rain
1:07 PM 62.1 °F 60.1 °F 93% 29.94 in 3.0 mi South 5.8 mph - 0.00 in   Overcast
1:14 PM 62.1 °F 60.1 °F 93% 29.94 in 5.0 mi South 4.6 mph - 0.00 in   Overcast
1:53 PM 63.0 °F 61.0 °F 93% 29.91 in 8.0 mi SSE 9.2 mph - 0.00 in   Overcast
2:53 PM 64.9 °F 62.1 °F 90% 29.90 in 7.0 mi South 9.2 mph 17.3 mph 0.00 in   Mostly Cloudy
3:18 PM 66.0 °F 62.1 °F 87% 29.89 in 9.0 mi South 9.2 mph - N/A   Mostly Cloudy
3:53 PM 66.2 °F 62.6 °F 88% 29.90 in 10.0 mi South 8.1 mph - N/A   Overcast
4:53 PM 66.0 °F 62.1 °F 87% 29.88 in 7.0 mi SE 6.9 mph - 0.00 in   Overcast
5:26 PM 66.0 °F 62.1 °F 87% 29.89 in 7.0 mi SSE 6.9 mph - N/A   Mostly Cloudy
5:53 PM 66.9 °F 62.1 °F 84% 29.89 in 10.0 mi SSE 6.9 mph - N/A   Overcast
6:53 PM 66.0 °F 61.0 °F 84% 29.88 in 10.0 mi SE 5.8 mph - N/A   Mostly Cloudy
7:53 PM 66.0 °F 60.1 °F 81% 29.86 in 10.0 mi ESE 9.2 mph - N/A   Mostly Cloudy
8:53 PM 64.9 °F 60.1 °F 84% 29.85 in 10.0 mi SE 9.2 mph - N/A   Mostly Cloudy
9:53 PM 66.0 °F 59.0 °F 78% 29.84 in 10.0 mi SSE 11.5 mph - N/A   Mostly Cloudy
10:53 PM 66.2 °F 60.8 °F 83% 29.83 in 10.0 mi SSE 12.7 mph - N/A   Mostly Cloudy
11:53 PM 68.0 °F 60.1 °F 76% 29.81 in 10.0 mi SSE 15.0 mph 23.0 mph N/A   Scattered Clouds